This demonstration page uses our WeatherBlox Daily Observations layout. Learn more.

Left ArrowRight Arrow

Hourly Observations for July 22, 2022

Temp ( °F °C ) Dew Point ( °F °C ) Humidity (%) Winds ( mph kmh ) Pressure ( in mb ) Visibility ( mi km ) Precip ( " mm )
12:53 am 00:53 Mostly Cloudy 85 29.4 70 21.1 61 61 E 13 20 29.91 1013 10 16 0.00 0.00
1:53 am 01:53 Partly Cloudy 85 29.4 71 21.7 63 63 ESE 12 19 29.91 1013 10 16 0.00 0.00
2:53 am 02:53 Partly Cloudy 84 28.9 70 21.1 63 63 SE 10 17 29.91 1013 10 16 0.00 0.00
3:53 am 03:53 Mostly Cloudy 84 28.9 71 21.7 65 65 ESE 8 13 29.91 1013 10 16 0.00 0.00
4:53 am 04:53 Mostly Cloudy 84 28.9 72 22.2 67 67 SE 7 11 29.91 1013 10 16 0.00 0.00
5:53 am 05:53 Mostly Cloudy 84 28.9 71 21.7 65 65 SSE 8 13 29.92 1013 10 16 0.00 0.00
6:53 am 06:53 Mostly Cloudy 84 28.9 67 19.4 57 57 S 9 15 29.94 1014 10 16 0.00 0.00
7:53 am 07:53 Partly Cloudy 85 29.4 66 18.9 53 53 S 8 13 29.96 1014 10 16 0.00 0.00
8:53 am 08:53 Partly Cloudy 87 30.6 65 18.3 48 48 SSW 7 11 29.97 1015 10 16 0.00 0.00
9:53 am 09:53 Mostly Cloudy 89 31.7 60 15.6 38 38 SW 9 15 29.98 1015 10 16 0.00 0.00
10:53 am 10:53 Mostly Cloudy 93 33.9 59 15 32 32 S 9 15 29.98 1015 10 16 0.00 0.00
11:53 am 11:53 Mostly Cloudy 96 35.6 64 17.8 35 35 VRB 3 6 29.98 1015 10 16 0.00 0.00
12:53 pm 12:53 Mostly Cloudy 96 35.6 65 18.3 36 36 SE 8 13 29.97 1015 10 16 0.00 0.00
1:53 pm 13:53 Mostly Cloudy 99 37.2 65 18.3 33 33 SE 14 22 29.95 1014 10 16 0.00 0.00
2:53 pm 14:53 Mostly Cloudy 97 36.1 67 19.4 37 37 ESE 17 28 29.95 1014 10 16 0.00 0.00
3:53 pm 15:53 Mostly Cloudy 95 35 70 21.1 44 44 SE 17 28 29.94 1014 10 16 0.00 0.00
4:53 pm 16:53 Mostly Cloudy 96 35.6 69 20.6 41 41 SSE 15 24 29.92 1013 10 16 0.00 0.00
5:53 pm 17:53 Mostly Cloudy 96 35.6 68 20 40 40 SE 15 24 29.91 1013 10 16 0.00 0.00
6:53 pm 18:53 Mostly Cloudy 95 35 68 20 41 41 SE 15 24 29.90 1013 10 16 0.00 0.00
7:53 pm 19:53 Mostly Cloudy 95 35 68 20 41 41 SE 14 22 29.91 1013 10 16 0.00 0.00
8:53 pm 20:53 Mostly Cloudy 89 31.7 70 21.1 53 53 SE 13 20 29.93 1014 10 16 0.00 0.00
9:53 pm 21:53 Partly Cloudy 88 31.1 69 20.6 54 54 SE 10 17 29.94 1014 10 16 0.00 0.00
10:53 pm 22:53 Partly Cloudy 87 30.6 68 20 53 53 SE 16 26 29.96 1015 10 16 0.00 0.00
11:53 pm 23:53 Mostly Clear 85 29.4 67 19.4 55 55 SSE 13 20 29.96 1015 10 16 0.00 0.00

Powered by AerisWeather